Date,Time,Wetness (Wet Dry or Ice),Wind Speed (m/s),Temperature (C),Humidity (%),Pressure (mb),Radiation (W/m^2)
2020-10-31,07:15:00,DRY,4.60,11.00,25.0,778.00,3.2
2020-10-31,07:20:00,DRY,4.50,11.00,25.0,778.00,5.5
2020-10-31,07:25:00,DRY,6.65,11.10,25.0,778.00,9.7
2020-10-31,07:30:00,DRY,4.67,11.03,25.0,778.33,12.8
2020-10-31,07:35:00,DRY,4.70,11.05,25.5,778.00,17.8
2020-10-31,07:40:00,DRY,4.27,11.20,25.0,778.00,22.6
2020-10-31,07:45:00,DRY,3.35,11.35,25.0,779.00,27.4
2020-10-31,07:50:00,DRY,4.13,11.63,24.0,779.00,32.3
2020-10-31,07:55:00,DRY,3.30,11.65,24.0,779.00,36.9
2020-10-31,08:00:00,DRY,4.23,11.53,24.7,778.67,70.4
2020-10-31,08:05:00,DRY,5.75,11.65,24.0,779.00,147.8
2020-10-31,08:10:00,DRY,3.60,11.70,24.3,779.00,173.6
2020-10-31,08:15:00,DRY,2.80,11.80,24.0,779.00,193.3
2020-10-31,08:20:00,DRY,4.07,11.80,24.3,779.00,218.9
2020-10-31,08:25:00,DRY,5.65,11.60,25.0,779.00,243.1
2020-10-31,08:30:00,DRY,6.43,11.80,24.7,779.00,262.2
2020-10-31,08:35:00,DRY,5.50,11.70,25.0,779.00,283.4
2020-10-31,08:40:00,DRY,6.90,11.90,25.0,779.00,304.6
2020-10-31,08:45:00,DRY,6.80,11.85,25.0,779.00,328.1
2020-10-31,08:50:00,DRY,6.97,11.70,25.0,779.00,349.9
2020-10-31,08:55:00,DRY,5.45,11.70,25.0,779.00,372.9
2020-10-31,09:00:00,DRY,5.80,11.80,25.0,779.00,392.1
2020-10-31,09:05:00,DRY,3.90,11.90,25.0,779.00,413.5
2020-10-31,09:10:00,DRY,6.23,12.00,25.7,779.00,435.8
2020-10-31,09:15:00,DRY,6.25,12.05,25.0,779.00,453.8
2020-10-31,09:20:00,DRY,3.40,12.10,25.0,779.00,476.0
2020-10-31,09:25:00,DRY,4.75,12.15,25.5,779.00,493.4
2020-10-31,09:30:00,DRY,4.73,12.37,24.7,779.00,511.8
2020-10-31,09:35:00,DRY,5.60,12.40,24.5,779.00,528.8
2020-10-31,09:40:00,DRY,4.90,12.50,24.0,779.00,549.5
2020-10-31,09:45:00,DRY,5.05,12.40,25.0,779.00,563.0
2020-10-31,09:50:00,DRY,5.30,12.53,24.0,779.33,582.1
2020-10-31,09:55:00,DRY,5.65,12.60,24.0,779.50,596.4
2020-10-31,10:00:00,DRY,5.50,12.60,24.3,779.33,614.0
2020-10-31,10:05:00,DRY,5.60,12.75,24.0,780.00,629.5
2020-10-31,10:10:00,DRY,5.20,12.93,23.7,780.00,645.5
2020-10-31,10:15:00,DRY,5.60,13.10,23.5,780.00,661.9
2020-10-31,10:20:00,DRY,5.10,13.43,23.0,780.00,683.0
2020-10-31,10:25:00,DRY,4.30,13.45,23.0,780.00,693.4
2020-10-31,10:30:00,DRY,2.47,13.73,22.7,780.00,712.2
2020-10-31,10:35:00,DRY,3.70,13.90,23.0,780.00,719.7
2020-10-31,10:40:00,DRY,2.97,13.97,23.0,780.00,741.0
2020-10-31,10:45:00,DRY,2.90,13.70,23.0,780.00,756.0
2020-10-31,10:50:00,DRY,3.90,13.73,23.0,780.00,777.3
2020-10-31,10:55:00,DRY,2.90,13.75,22.5,780.00,788.4
2020-10-31,11:00:00,DRY,3.53,14.17,22.3,780.00,797.2
2020-10-31,11:05:00,DRY,2.95,14.10,23.0,780.00,811.5
2020-10-31,11:10:00,DRY,3.27,14.30,22.3,780.00,824.5
2020-10-31,11:15:00,DRY,2.20,14.15,23.0,780.00,826.5
2020-10-31,11:20:00,DRY,2.07,14.50,22.0,780.00,834.8
2020-10-31,11:25:00,DRY,2.05,14.20,22.5,780.00,843.4
2020-10-31,11:30:00,DRY,2.03,14.27,23.0,780.00,856.7
2020-10-31,11:35:00,DRY,1.80,14.35,22.5,780.00,860.0
2020-10-31,11:40:00,DRY,2.00,14.43,21.7,780.00,869.0
2020-10-31,11:45:00,DRY,3.15,14.30,22.5,780.00,880.1
2020-10-31,11:50:00,DRY,3.07,14.53,22.0,780.00,884.7
2020-10-31,11:55:00,DRY,4.30,14.55,21.0,780.00,892.8
2020-10-31,12:00:00,DRY,3.97,14.50,21.7,780.00,897.9
2020-10-31,12:05:00,DRY,2.90,14.55,22.0,780.00,905.1
2020-10-31,12:10:00,DRY,1.53,14.97,21.7,780.00,911.4
2020-10-31,12:15:00,DRY,2.05,15.00,21.5,780.00,913.3
2020-10-31,12:20:00,DRY,3.03,14.90,21.3,780.00,919.6
2020-10-31,12:25:00,DRY,1.40,14.45,22.0,780.00,918.6
2020-10-31,12:30:00,DRY,2.20,14.60,23.0,780.00,922.4
2020-10-31,12:35:00,DRY,1.85,14.85,23.0,780.00,930.1
2020-10-31,12:40:00,DRY,2.10,14.60,23.3,780.00,928.0
2020-10-31,12:45:00,DRY,2.75,14.55,24.5,780.00,929.2
2020-10-31,12:50:00,DRY,2.60,14.47,25.0,780.00,931.6
2020-10-31,12:55:00,DRY,2.40,14.65,25.0,780.00,929.3
2020-10-31,13:00:00,DRY,2.13,14.53,23.3,779.33,932.4
2020-10-31,13:05:00,DRY,2.30,14.45,24.5,779.00,930.6
2020-10-31,13:10:00,DRY,2.93,14.53,23.7,779.00,929.5
2020-10-31,13:15:00,DRY,3.15,14.35,23.5,779.00,927.5
2020-10-31,13:20:00,DRY,3.00,14.60,24.7,779.00,923.9
2020-10-31,13:25:00,DRY,1.95,14.70,23.5,779.00,919.5
2020-10-31,13:30:00,DRY,2.00,15.00,23.0,779.00,922.6
2020-10-31,13:35:00,DRY,2.30,14.10,35.0,779.00,911.2
2020-10-31,13:40:00,DRY,1.63,14.57,30.7,779.00,904.4
2020-10-31,13:45:00,DRY,2.25,14.70,28.0,779.00,900.5
2020-10-31,13:50:00,DRY,2.80,14.73,31.3,779.00,895.9
2020-10-31,13:55:00,DRY,1.00,14.15,41.0,779.00,886.2
2020-10-31,14:00:00,DRY,2.57,14.47,25.0,779.00,883.6
2020-10-31,14:05:00,DRY,1.55,14.95,26.0,779.00,873.0
2020-10-31,14:10:00,DRY,1.43,15.20,24.0,779.00,863.8
2020-10-31,14:15:00,DRY,3.15,15.45,25.0,779.00,857.4
2020-10-31,14:20:00,DRY,2.00,14.83,28.7,779.00,849.0
2020-10-31,14:25:00,DRY,1.40,14.55,32.5,779.00,836.7
2020-10-31,14:30:00,DRY,2.97,14.87,27.0,779.00,827.7
2020-10-31,14:35:00,DRY,2.55,15.00,25.5,779.00,820.5
2020-10-31,14:40:00,DRY,1.53,15.10,25.0,779.00,806.6
2020-10-31,14:45:00,DRY,1.55,14.90,27.5,779.00,797.5
2020-10-31,14:50:00,DRY,1.73,14.37,27.0,779.00,784.5
2020-10-31,14:55:00,DRY,2.00,14.65,26.5,779.00,772.2
2020-10-31,15:00:00,DRY,2.60,14.27,27.7,779.00,761.2
2020-10-31,15:05:00,DRY,2.30,14.15,30.0,779.00,746.1
2020-10-31,15:10:00,DRY,0.97,14.07,29.0,779.00,732.8
2020-10-31,15:15:00,DRY,2.35,13.85,34.5,779.00,717.4
2020-10-31,15:20:00,DRY,1.17,14.03,30.3,779.00,701.5
2020-10-31,15:25:00,DRY,2.10,14.10,29.0,779.00,689.1
2020-10-31,15:30:00,DRY,1.17,14.27,27.3,779.00,673.4
2020-10-31,15:35:00,DRY,1.00,14.55,26.5,779.00,658.3
2020-10-31,15:40:00,DRY,1.43,14.53,28.3,779.00,641.7
2020-10-31,15:45:00,DRY,0.85,13.80,28.5,779.00,624.9
2020-10-31,15:50:00,DRY,0.87,14.13,28.0,779.00,608.6
2020-10-31,15:55:00,DRY,1.40,14.40,27.5,779.00,590.6
2020-10-31,16:00:00,DRY,1.70,14.73,26.7,779.00,570.7
2020-10-31,16:05:00,DRY,1.20,14.40,28.0,779.00,551.5
2020-10-31,16:10:00,DRY,1.40,13.97,28.7,779.00,531.5
2020-10-31,16:15:00,DRY,2.40,14.25,28.5,779.00,515.2
2020-10-31,16:20:00,DRY,2.20,13.73,29.7,779.00,493.5
2020-10-31,16:25:00,DRY,1.85,13.75,29.0,779.00,475.1
2020-10-31,16:30:00,DRY,2.27,13.17,31.7,779.00,454.1
2020-10-31,16:35:00,DRY,1.20,13.05,28.5,779.00,432.0
2020-10-31,16:40:00,DRY,1.40,13.27,30.0,779.00,411.9
2020-10-31,16:45:00,DRY,1.70,13.55,30.0,779.00,389.4
2020-10-31,16:50:00,DRY,1.40,13.83,31.7,779.00,369.7
2020-10-31,16:55:00,DRY,1.50,13.15,29.5,779.00,347.9
2020-10-31,17:00:00,DRY,1.30,13.27,28.3,779.00,327.4
2020-10-31,17:05:00,DRY,1.65,13.15,30.0,779.00,307.6
2020-10-31,17:10:00,DRY,2.73,13.03,29.0,779.00,285.0
2020-10-31,17:15:00,DRY,2.90,13.00,28.0,779.00,265.1
2020-10-31,17:20:00,DRY,1.70,13.00,25.7,779.00,241.7
2020-10-31,17:25:00,DRY,2.60,12.90,25.0,779.00,221.2
2020-10-31,17:30:00,DRY,4.33,12.83,25.0,779.00,198.5
2020-10-31,17:35:00,DRY,3.50,12.75,25.5,779.00,177.8
2020-10-31,17:40:00,DRY,4.03,12.70,26.3,779.00,157.3
2020-10-31,17:45:00,DRY,5.60,12.95,24.0,779.00,136.8
2020-10-31,17:50:00,DRY,2.50,12.73,25.3,779.00,110.7
2020-10-31,17:55:00,DRY,2.35,12.35,26.5,779.00,85.6
2020-10-31,18:00:00,DRY,2.90,12.23,27.0,779.00,64.8
2020-10-31,18:05:00,DRY,3.15,12.20,26.5,779.00,46.0
2020-10-31,18:10:00,DRY,3.23,12.33,26.0,779.00,31.5
2020-10-31,18:15:00,DRY,4.05,12.40,26.0,779.00,20.9
2020-10-31,18:20:00,DRY,4.40,12.43,26.0,779.00,13.1
2020-10-31,18:25:00,DRY,4.85,12.55,25.5,779.00,8.9
2020-10-31,18:30:00,DRY,3.33,12.37,25.0,779.00,5.9
2020-10-31,18:35:00,DRY,2.50,12.35,25.0,779.00,3.0
2020-10-31,18:40:00,DRY,4.37,12.43,23.7,779.00,2.3
2020-10-31,18:45:00,DRY,5.65,12.65,23.0,779.00,1.9
2020-10-31,18:50:00,DRY,5.13,12.63,23.0,779.00,1.2
2020-10-31,18:55:00,DRY,5.35,12.70,23.0,779.00,1.1
2020-10-31,19:00:00,DRY,5.37,12.70,23.0,779.00,1.2
2020-10-31,19:05:00,DRY,5.85,12.75,22.5,779.00,1.1
2020-10-31,19:10:00,DRY,5.63,12.70,23.3,779.00,1.2
2020-10-31,19:15:00,DRY,6.20,12.65,23.5,779.00,1.4
2020-10-31,19:20:00,DRY,6.97,12.53,24.0,779.00,0.8
2020-10-31,19:25:00,DRY,4.55,12.65,23.0,779.00,2.4
2020-10-31,19:30:00,DRY,4.63,12.67,23.0,779.00,2.0
2020-10-31,19:35:00,DRY,3.95,12.70,23.5,779.00,1.1
2020-10-31,19:40:00,DRY,3.53,12.50,23.7,779.00,1.4
2020-10-31,19:45:00,DRY,2.95,12.35,24.5,779.00,0.7
2020-10-31,19:50:00,DRY,5.77,12.40,24.0,779.00,1.2
2020-10-31,19:55:00,DRY,5.45,12.40,24.0,779.00,1.2
2020-10-31,20:00:00,DRY,3.77,12.50,24.3,779.00,1.5
2020-10-31,20:05:00,DRY,5.50,12.35,25.0,780.00,2.3
2020-10-31,20:10:00,DRY,3.33,12.33,25.3,779.67,1.1
2020-10-31,20:15:00,DRY,5.80,12.15,25.5,780.00,1.1
2020-10-31,20:20:00,DRY,3.83,12.23,25.3,780.00,0.6
2020-10-31,20:25:00,DRY,3.55,12.20,25.5,779.50,1.1
2020-10-31,20:30:00,DRY,5.30,12.10,25.7,780.00,1.0
2020-10-31,20:35:00,DRY,5.90,12.25,26.0,780.00,1.4
2020-10-31,20:40:00,DRY,6.57,12.13,26.0,780.00,1.2
2020-10-31,20:45:00,DRY,5.65,12.15,26.0,780.00,1.1
2020-10-31,20:50:00,DRY,6.30,12.17,26.0,780.00,1.1
2020-10-31,20:55:00,DRY,7.00,12.25,25.0,780.00,0.7
2020-10-31,21:00:00,DRY,5.27,11.97,26.3,780.00,1.5
2020-10-31,21:05:00,DRY,5.95,11.80,27.0,780.00,1.5
2020-10-31,21:10:00,DRY,7.43,11.80,27.0,780.00,1.9
2020-10-31,21:15:00,DRY,4.80,11.80,27.0,780.00,2.5
2020-10-31,21:20:00,DRY,5.90,11.73,27.0,780.00,1.1
2020-10-31,21:25:00,DRY,6.65,11.80,27.0,780.00,1.3
2020-10-31,21:30:00,DRY,5.23,11.67,27.0,780.00,1.5
2020-10-31,21:35:00,DRY,6.20,11.55,28.0,780.00,1.2
2020-10-31,21:40:00,DRY,6.67,11.30,29.0,780.00,1.1
2020-10-31,21:45:00,DRY,6.65,11.20,29.0,780.00,1.4
2020-10-31,21:50:00,DRY,7.70,11.23,28.3,780.00,1.4
2020-10-31,21:55:00,DRY,4.95,11.25,29.0,780.00,1.2
2020-10-31,22:00:00,DRY,6.27,11.33,28.3,780.00,0.9
2020-10-31,22:05:00,DRY,7.90,11.15,29.0,780.00,0.5
2020-10-31,22:10:00,DRY,6.40,11.13,28.3,780.00,1.4
2020-10-31,22:15:00,DRY,5.60,11.15,29.0,780.00,1.1
2020-10-31,22:20:00,DRY,7.30,11.10,28.3,780.00,1.3
2020-10-31,22:25:00,DRY,5.50,11.25,26.0,780.00,1.1
2020-10-31,22:30:00,DRY,5.50,11.17,28.3,780.00,1.2
2020-10-31,22:35:00,DRY,5.25,11.10,29.0,780.00,1.4
2020-10-31,22:40:00,DRY,5.73,11.10,29.0,780.00,1.2
2020-10-31,22:45:00,DRY,6.00,11.20,28.5,780.00,1.3
2020-10-31,22:50:00,DRY,5.70,11.27,26.7,780.00,1.3
2020-10-31,22:55:00,DRY,6.55,11.40,26.5,780.00,1.1
2020-10-31,23:00:00,DRY,6.20,11.40,26.3,780.00,1.3
2020-10-31,23:05:00,DRY,7.50,11.40,24.5,780.00,1.5
2020-10-31,23:10:00,DRY,7.63,11.43,24.3,780.00,1.4
2020-10-31,23:15:00,DRY,7.35,11.45,25.0,780.00,1.6
2020-10-31,23:20:00,DRY,7.00,11.13,28.3,780.00,1.3
2020-10-31,23:25:00,DRY,8.55,10.95,28.5,780.00,1.2
2020-10-31,23:30:00,DRY,6.17,11.17,26.7,780.00,1.3
2020-10-31,23:35:00,DRY,7.30,11.10,28.0,780.00,1.4
2020-10-31,23:40:00,DRY,8.00,11.23,25.7,780.00,1.2
2020-10-31,23:45:00,DRY,8.55,11.20,25.0,780.00,1.4
2020-10-31,23:50:00,DRY,7.37,11.37,25.3,780.00,1.2
2020-10-31,23:55:00,DRY,8.50,11.35,25.0,780.00,1.3
2020-11-01,00:00:00,DRY,7.37,11.43,25.0,780.00,1.3
2020-11-01,00:05:00,DRY,9.05,11.50,23.0,780.00,1.1
2020-11-01,00:10:00,DRY,9.60,11.53,25.3,780.00,1.8
2020-11-01,00:15:00,DRY,8.75,11.40,27.5,780.00,1.3
2020-11-01,00:20:00,DRY,9.03,11.07,31.0,780.00,1.1
2020-11-01,00:25:00,DRY,7.85,10.70,33.5,780.00,1.2
2020-11-01,00:30:00,DRY,9.27,10.67,33.0,780.00,1.2
2020-11-01,00:35:00,DRY,8.25,10.75,33.0,780.00,1.4
2020-11-01,00:40:00,DRY,8.30,10.70,33.7,780.00,1.4
2020-11-01,00:45:00,DRY,8.90,10.70,33.0,780.00,1.4
2020-11-01,00:50:00,DRY,9.07,10.73,33.0,780.00,1.9
2020-11-01,00:55:00,DRY,9.35,10.80,33.5,780.00,1.3
2020-11-01,01:00:00,DRY,9.63,11.00,28.7,780.00,1.2
2020-11-01,01:05:00,DRY,11.25,11.10,30.0,780.00,1.4
2020-11-01,01:10:00,DRY,8.60,11.23,29.0,780.00,1.3
2020-11-01,01:15:00,DRY,8.95,11.35,26.0,780.00,1.4
2020-11-01,01:20:00,DRY,9.87,11.53,26.7,780.00,1.3
2020-11-01,01:25:00,DRY,9.55,11.40,25.0,780.00,1.4
2020-11-01,01:30:00,DRY,8.47,11.37,26.7,780.00,1.6
2020-11-01,01:35:00,DRY,8.65,11.20,27.5,780.00,1.6
2020-11-01,01:40:00,DRY,6.73,11.17,28.7,780.00,1.2
2020-11-01,01:45:00,DRY,9.60,11.15,29.5,780.00,0.7
2020-11-01,01:50:00,DRY,7.47,11.07,32.0,780.00,1.1
2020-11-01,01:55:00,DRY,4.70,10.85,34.5,779.50,1.4
2020-11-01,02:00:00,DRY,5.30,10.73,35.3,779.33,1.2
2020-11-01,02:05:00,DRY,7.30,10.75,34.5,780.00,1.2
2020-11-01,02:10:00,DRY,4.07,10.73,36.7,780.00,1.3
2020-11-01,02:15:00,DRY,3.45,10.50,35.5,780.00,1.1
2020-11-01,02:20:00,DRY,3.27,10.83,33.3,779.33,1.9
2020-11-01,02:25:00,DRY,3.00,10.85,33.0,779.00,0.8
2020-11-01,02:30:00,DRY,3.97,11.07,32.0,780.00,1.2
2020-11-01,02:35:00,DRY,3.50,10.70,34.5,779.00,1.5
2020-11-01,02:40:00,DRY,3.73,10.60,35.7,779.00,1.4
2020-11-01,02:45:00,DRY,2.40,10.40,37.0,779.50,1.3
2020-11-01,02:50:00,DRY,3.10,10.33,37.3,779.00,1.2
2020-11-01,02:55:00,DRY,4.90,10.30,39.0,779.00,1.6
2020-11-01,03:00:00,DRY,3.83,10.30,39.0,779.00,1.3
2020-11-01,03:05:00,DRY,4.55,10.30,39.5,779.00,1.4
2020-11-01,03:10:00,DRY,4.47,10.23,39.0,779.00,1.3
2020-11-01,03:15:00,DRY,3.85,10.20,39.0,779.00,1.1
2020-11-01,03:20:00,DRY,4.27,10.17,39.0,779.00,1.6
2020-11-01,03:25:00,DRY,3.85,10.30,38.5,779.00,2.0
2020-11-01,03:30:00,DRY,6.13,10.23,38.7,779.00,1.4
2020-11-01,03:35:00,DRY,5.90,10.20,39.0,779.00,0.9
2020-11-01,03:40:00,DRY,3.43,10.27,38.3,779.00,1.0
2020-11-01,03:45:00,DRY,4.35,10.15,38.5,779.00,1.2
2020-11-01,03:50:00,DRY,4.70,10.20,38.3,779.00,1.1
2020-11-01,03:55:00,DRY,7.20,10.45,35.5,779.00,0.8
2020-11-01,04:00:00,DRY,6.60,10.37,35.7,779.00,1.2
2020-11-01,04:05:00,DRY,4.50,10.30,37.0,779.00,1.6
2020-11-01,04:10:00,DRY,4.67,10.27,36.0,779.00,1.1
2020-11-01,04:15:00,DRY,2.85,10.35,35.0,779.00,1.4
2020-11-01,04:20:00,DRY,1.83,10.40,35.3,779.00,1.7
2020-11-01,04:25:00,DRY,2.15,10.30,35.5,779.00,1.1
2020-11-01,04:30:00,DRY,3.87,10.33,34.7,779.00,1.7
2020-11-01,04:35:00,DRY,6.80,10.20,35.0,779.00,1.2
2020-11-01,04:40:00,DRY,6.30,10.63,33.0,779.00,1.2
2020-11-01,04:45:00,DRY,4.50,10.80,32.0,779.00,1.6
2020-11-01,04:50:00,DRY,4.33,10.87,32.3,779.00,1.0
2020-11-01,04:55:00,DRY,5.45,11.20,30.5,779.00,1.2
2020-11-01,05:00:00,DRY,2.90,10.80,32.3,779.00,1.6
2020-11-01,05:05:00,DRY,4.30,10.70,32.5,779.00,1.3
2020-11-01,05:10:00,DRY,4.17,10.87,32.7,779.00,1.5
2020-11-01,05:15:00,DRY,2.95,10.40,35.5,779.00,1.6
2020-11-01,05:20:00,DRY,3.20,10.17,35.7,779.00,1.3
2020-11-01,05:25:00,DRY,3.00,10.75,33.0,779.00,1.1
2020-11-01,05:30:00,DRY,2.07,10.17,36.0,779.00,1.1
2020-11-01,05:35:00,DRY,2.10,10.05,37.0,779.00,2.1
2020-11-01,05:40:00,DRY,2.10,10.00,36.3,779.00,0.7
2020-11-01,05:45:00,DRY,5.00,10.20,35.5,779.00,1.1
2020-11-01,05:50:00,DRY,1.97,10.13,36.0,779.00,1.4
2020-11-01,05:55:00,DRY,4.50,10.35,33.5,779.00,1.4
2020-11-01,06:00:00,DRY,5.27,11.07,31.0,779.00,1.4
2020-11-01,06:05:00,DRY,5.20,10.75,32.5,779.00,0.9
2020-11-01,06:10:00,DRY,4.33,10.90,31.0,779.00,1.0
2020-11-01,06:15:00,DRY,2.65,11.60,29.0,779.00,0.8
2020-11-01,06:20:00,DRY,4.07,11.00,31.0,779.00,1.7
2020-11-01,06:25:00,DRY,4.00,11.10,31.0,779.00,1.2
2020-11-01,06:30:00,DRY,5.43,10.77,32.7,779.00,1.4
2020-11-01,06:35:00,DRY,3.90,10.70,33.0,779.00,2.0
2020-11-01,06:40:00,DRY,4.20,10.67,33.0,779.00,1.7
2020-11-01,06:45:00,DRY,6.15,10.85,32.5,779.00,1.4
2020-11-01,06:50:00,DRY,6.00,10.33,34.7,779.00,1.3
2020-11-01,06:55:00,DRY,4.60,10.35,34.5,779.00,1.2
2020-11-01,07:00:00,DRY,6.17,10.70,32.0,779.00,1.3
2020-11-01,07:05:00,DRY,3.10,10.65,33.5,779.00,1.4
2020-11-01,07:10:00,DRY,5.83,10.60,31.7,779.00,2.2
2020-11-01,07:15:00,DRY,4.55,10.95,30.0,779.00,3.1
2020-11-01,07:20:00,DRY,5.00,10.93,31.3,779.00,5.5
2020-11-01,07:25:00,DRY,6.60,10.70,32.0,779.00,8.4
2020-11-01,07:30:00,DRY,4.83,10.53,33.7,779.00,12.3
2020-11-01,07:35:00,DRY,4.60,10.60,33.5,779.00,15.9
2020-11-01,07:40:00,DRY,1.83,10.97,31.0,779.00,19.3
2020-11-01,07:45:00,DRY,2.05,11.35,27.5,779.00,23.0
2020-11-01,07:50:00,DRY,2.07,11.17,30.7,779.00,25.7
2020-11-01,07:55:00,DRY,3.70,11.30,30.0,779.00,28.6
2020-11-01,08:00:00,DRY,3.60,11.53,29.0,779.33,57.3
2020-11-01,08:05:00,DRY,2.95,11.80,28.0,780.00,160.6
2020-11-01,08:10:00,DRY,2.93,11.60,29.3,780.00,183.5
2020-11-01,08:15:00,DRY,2.60,11.45,30.0,780.00,205.9
2020-11-01,08:20:00,DRY,2.93,11.50,30.7,780.00,228.5
2020-11-01,08:25:00,DRY,2.25,11.65,29.5,780.00,250.9
2020-11-01,08:30:00,DRY,1.50,11.93,29.3,780.00,274.4
2020-11-01,08:35:00,DRY,1.10,12.30,27.5,780.00,297.4
2020-11-01,08:40:00,DRY,1.17,12.83,26.7,780.00,318.5
2020-11-01,08:45:00,DRY,1.45,13.10,25.0,780.00,340.6
2020-11-01,08:50:00,DRY,1.83,12.87,27.7,780.00,363.0
2020-11-01,08:55:00,DRY,1.40,12.80,25.5,780.00,383.8
2020-11-01,09:00:00,DRY,0.80,13.17,25.3,780.00,405.9
2020-11-01,09:05:00,DRY,1.00,13.10,27.5,780.00,427.1
2020-11-01,09:10:00,DRY,1.57,13.13,26.7,780.00,446.6
2020-11-01,09:15:00,DRY,1.40,13.10,27.5,780.00,467.7
2020-11-01,09:20:00,DRY,0.73,13.23,26.0,780.00,486.6
2020-11-01,09:25:00,DRY,0.55,13.60,25.0,780.00,507.4
2020-11-01,09:30:00,DRY,1.10,13.60,24.7,780.00,525.8
2020-11-01,09:35:00,DRY,1.45,13.65,25.0,780.00,544.6
2020-11-01,09:40:00,DRY,1.13,13.60,25.0,780.00,563.4
2020-11-01,09:45:00,DRY,0.90,13.45,30.5,780.00,581.0
2020-11-01,09:50:00,DRY,1.17,13.77,29.0,780.00,600.1
2020-11-01,09:55:00,DRY,1.00,13.60,27.0,780.00,617.6
2020-11-01,10:00:00,DRY,0.80,13.60,29.7,780.00,634.9
2020-11-01,10:05:00,DRY,1.70,14.00,28.5,780.00,650.0
2020-11-01,10:10:00,DRY,0.77,14.00,28.0,780.00,667.9
2020-11-01,10:15:00,DRY,0.80,13.70,27.5,780.00,682.4
2020-11-01,10:20:00,DRY,1.73,13.40,27.3,780.00,699.3
2020-11-01,10:25:00,DRY,1.15,13.60,28.5,780.00,711.0
2020-11-01,10:30:00,DRY,2.10,13.63,30.0,780.00,727.3
2020-11-01,10:35:00,DRY,1.70,13.75,29.0,780.00,740.8
2020-11-01,10:40:00,DRY,1.03,13.87,27.7,780.00,755.7
2020-11-01,10:45:00,DRY,0.45,14.30,28.5,780.00,769.1
2020-11-01,10:50:00,DRY,1.40,14.07,29.0,780.00,778.1
2020-11-01,10:55:00,DRY,1.40,13.95,29.0,780.00,792.8
2020-11-01,11:00:00,DRY,1.47,13.50,30.0,780.00,802.8
2020-11-01,11:05:00,DRY,0.90,14.05,30.5,780.00,815.0
2020-11-01,11:10:00,DRY,1.33,14.23,30.0,780.00,824.5
2020-11-01,11:15:00,DRY,0.80,14.30,29.5,780.00,837.7
2020-11-01,11:20:00,DRY,1.97,13.80,31.0,780.00,847.7
2020-11-01,11:25:00,DRY,1.70,13.80,31.0,780.00,856.1
2020-11-01,11:30:00,DRY,1.73,13.87,30.3,780.00,864.6
2020-11-01,11:35:00,DRY,0.75,13.80,29.5,780.00,873.6
2020-11-01,11:40:00,DRY,1.73,14.43,30.3,780.00,880.6
2020-11-01,11:45:00,DRY,0.75,14.10,31.0,780.00,888.0
2020-11-01,11:50:00,DRY,1.63,13.80,30.0,780.00,894.8
2020-11-01,11:55:00,DRY,1.10,14.35,32.0,780.00,902.9
2020-11-01,12:00:00,DRY,2.07,14.07,29.3,780.00,908.4
2020-11-01,12:05:00,DRY,1.40,13.90,27.5,780.00,908.1
2020-11-01,12:10:00,DRY,2.00,14.27,29.0,780.00,914.4
2020-11-01,12:15:00,DRY,1.65,13.95,29.0,780.00,918.2
2020-11-01,12:20:00,DRY,1.47,14.03,29.7,780.00,923.8
2020-11-01,12:25:00,DRY,1.50,14.20,28.0,780.00,929.7
2020-11-01,12:30:00,DRY,2.10,14.43,29.0,779.67,933.5
2020-11-01,12:35:00,DRY,1.75,14.05,31.0,780.00,932.2
2020-11-01,12:40:00,DRY,2.03,13.80,30.7,779.33,935.6
2020-11-01,12:45:00,DRY,1.10,14.20,18.5,779.00,943.6
2020-11-01,12:50:00,DRY,2.13,14.40,23.0,779.00,937.3
2020-11-01,12:55:00,DRY,1.90,14.30,22.5,779.00,941.4
2020-11-01,13:00:00,DRY,2.93,14.13,30.0,779.00,938.0
2020-11-01,13:05:00,DRY,2.90,14.00,33.5,779.00,936.1
2020-11-01,13:10:00,DRY,1.87,13.90,32.3,779.00,932.7
2020-11-01,13:15:00,DRY,1.95,14.00,35.5,779.00,932.0
2020-11-01,13:20:00,DRY,1.60,13.93,34.0,779.00,925.9
2020-11-01,13:25:00,DRY,2.60,13.70,35.0,779.00,920.5
2020-11-01,13:30:00,DRY,3.30,14.30,36.0,779.00,917.0
2020-11-01,13:35:00,DRY,1.90,14.40,34.0,779.00,914.9
2020-11-01,13:40:00,DRY,2.83,13.93,36.3,779.00,904.3
2020-11-01,13:45:00,DRY,2.05,13.65,36.5,779.00,902.6
2020-11-01,13:50:00,DRY,1.30,13.27,37.0,779.00,897.4
2020-11-01,13:55:00,DRY,2.45,13.55,36.5,779.00,891.6
2020-11-01,14:00:00,DRY,2.33,13.50,36.3,779.00,885.1
2020-11-01,14:05:00,DRY,2.30,13.35,37.0,779.00,878.8
2020-11-01,14:10:00,DRY,3.00,13.40,37.0,779.00,867.8
2020-11-01,14:15:00,DRY,2.65,13.45,34.5,779.00,858.1
2020-11-01,14:20:00,DRY,1.83,13.30,35.3,779.00,850.7
2020-11-01,14:25:00,DRY,1.60,13.10,34.0,779.00,843.6
2020-11-01,14:30:00,DRY,1.27,13.20,35.3,779.00,830.9
2020-11-01,14:35:00,DRY,1.55,13.10,36.0,779.00,826.0
2020-11-01,14:40:00,DRY,1.67,13.13,37.3,779.00,813.1
2020-11-01,14:45:00,DRY,1.10,13.45,36.5,779.00,801.5
2020-11-01,14:50:00,DRY,1.70,13.13,37.0,779.00,788.5
2020-11-01,14:55:00,DRY,0.90,13.45,36.5,779.00,778.0
2020-11-01,15:00:00,DRY,0.77,13.40,34.3,779.00,767.5
2020-11-01,15:05:00,DRY,0.75,13.45,34.5,779.00,750.2
2020-11-01,15:10:00,DRY,1.50,13.27,36.7,779.00,739.5
2020-11-01,15:15:00,DRY,1.70,13.05,37.0,779.00,722.0
2020-11-01,15:20:00,DRY,1.83,13.10,37.3,779.00,702.2
2020-11-01,15:25:00,DRY,2.15,13.00,37.0,779.00,685.6
2020-11-01,15:30:00,DRY,2.00,12.83,36.7,779.00,679.4
2020-11-01,15:35:00,DRY,1.70,12.85,37.0,779.00,656.0
2020-11-01,15:40:00,DRY,1.80,13.10,35.7,779.00,643.5
2020-11-01,15:45:00,DRY,2.00,12.65,35.0,779.00,628.8
2020-11-01,15:50:00,DRY,1.57,12.67,36.0,779.00,605.5
2020-11-01,15:55:00,DRY,1.40,12.80,32.0,779.00,595.1
2020-11-01,16:00:00,DRY,1.87,12.70,33.3,779.00,576.0
2020-11-01,16:05:00,DRY,2.15,12.85,33.0,779.00,555.3
2020-11-01,16:10:00,DRY,2.40,12.43,37.3,779.00,538.6
2020-11-01,16:15:00,DRY,2.05,12.15,38.0,779.00,517.2
2020-11-01,16:20:00,DRY,2.00,12.27,35.7,779.00,498.6
2020-11-01,16:25:00,DRY,2.25,12.10,38.0,779.00,481.1
2020-11-01,16:30:00,DRY,2.03,12.00,38.7,779.00,460.9
2020-11-01,16:35:00,DRY,1.85,11.95,35.0,779.00,440.4
2020-11-01,16:40:00,DRY,1.87,11.87,36.7,779.00,419.0
2020-11-01,16:45:00,DRY,1.55,11.90,34.0,779.00,399.9
2020-11-01,16:50:00,DRY,3.20,11.70,34.7,779.00,377.3
2020-11-01,16:55:00,DRY,2.40,11.65,34.0,779.00,355.0
2020-11-01,17:00:00,DRY,3.17,11.33,35.3,779.00,333.0
2020-11-01,17:05:00,DRY,1.35,11.95,33.0,779.00,312.6
2020-11-01,17:10:00,DRY,1.10,12.57,32.7,779.00,290.6
2020-11-01,17:15:00,DRY,2.30,12.10,31.5,779.00,270.9
2020-11-01,17:20:00,DRY,1.43,12.40,32.3,778.67,249.0
2020-11-01,17:25:00,DRY,1.00,12.50,31.5,779.00,228.0
2020-11-01,17:30:00,DRY,1.93,12.13,31.7,778.67,208.6
2020-11-01,17:35:00,DRY,1.60,12.45,31.0,778.00,189.2
2020-11-01,17:40:00,DRY,1.93,11.70,33.0,779.00,167.6
2020-11-01,17:45:00,DRY,2.75,11.40,33.5,779.00,146.6
2020-11-01,17:50:00,DRY,2.27,11.60,31.7,779.00,118.2
2020-11-01,17:55:00,DRY,1.60,11.40,33.0,779.00,90.7
2020-11-01,18:00:00,DRY,2.20,11.20,34.0,779.00,68.1
2020-11-01,18:05:00,DRY,1.90,11.20,33.0,779.00,49.1
2020-11-01,18:10:00,DRY,2.67,11.07,34.0,779.00,32.7
2020-11-01,18:15:00,DRY,2.05,11.05,34.0,779.00,22.1
2020-11-01,18:20:00,DRY,2.03,10.70,35.7,778.67,15.2
2020-11-01,18:25:00,DRY,2.40,10.45,36.5,778.50,10.3
2020-11-01,18:30:00,DRY,3.43,10.20,37.7,778.33,6.2
2020-11-01,18:35:00,DRY,3.90,10.05,38.0,778.50,4.7
2020-11-01,18:40:00,DRY,5.37,9.97,37.0,778.33,2.2
2020-11-01,18:45:00,DRY,2.80,10.10,36.0,779.00,1.9
2020-11-01,18:50:00,DRY,2.43,10.20,34.3,779.00,1.6
2020-11-01,18:55:00,DRY,3.80,10.20,32.5,779.00,0.8
2020-11-01,19:00:00,DRY,4.60,10.27,31.3,779.00,1.1
2020-11-01,19:05:00,DRY,5.45,10.50,30.0,779.00,1.7
2020-11-01,19:10:00,,,,,,
2020-11-01,19:15:00,,,,,,
2020-11-01,19:20:00,DRY,2.90,10.20,31.0,779.00,2.2
2020-11-01,19:25:00,,,,,,
2020-11-01,19:30:00,,,,,,
2020-11-01,19:35:00,,,,,,
2020-11-01,19:40:00,,,,,,
2020-11-01,19:45:00,DRY,2.85,10.25,30.0,779.00,0.9
2020-11-01,19:50:00,DRY,5.07,10.00,32.0,779.00,1.1
2020-11-01,19:55:00,DRY,3.90,9.85,33.5,779.00,0.8
2020-11-01,20:00:00,DRY,5.90,9.83,35.0,779.00,1.4
2020-11-01,20:05:00,DRY,8.35,9.80,36.0,779.00,1.1
2020-11-01,20:10:00,DRY,5.93,9.63,34.7,779.00,1.4
2020-11-01,20:15:00,DRY,5.50,9.30,37.5,779.00,0.8
2020-11-01,20:20:00,DRY,5.47,9.03,39.3,779.00,0.8
2020-11-01,20:25:00,DRY,5.45,9.00,39.5,779.00,1.1
2020-11-01,20:30:00,DRY,7.43,8.87,40.3,779.00,0.8
2020-11-01,20:35:00,DRY,5.75,8.80,40.5,779.00,1.1
2020-11-01,20:40:00,DRY,4.80,8.90,40.0,779.00,0.9
2020-11-01,20:45:00,DRY,4.40,8.80,40.5,779.00,1.1
2020-11-01,20:50:00,DRY,5.63,9.00,40.0,779.00,1.2
2020-11-01,20:55:00,DRY,4.35,9.00,39.0,779.00,1.3
2020-11-01,21:00:00,DRY,5.27,8.80,39.7,779.00,1.1
2020-11-01,21:05:00,DRY,6.20,8.65,40.0,779.00,1.2
2020-11-01,21:10:00,DRY,3.87,8.73,40.0,779.00,1.1
2020-11-01,21:15:00,DRY,4.95,8.85,39.5,779.00,1.4
2020-11-01,21:20:00,DRY,5.03,8.87,39.3,779.00,1.4
2020-11-01,21:25:00,DRY,6.80,8.90,39.0,779.00,1.1
2020-11-01,21:30:00,DRY,5.20,8.67,40.3,779.00,1.2
2020-11-01,21:35:00,DRY,7.45,8.55,41.0,779.00,0.9